Ireland West Airport Knock, Ireland

7:10 PM IST on July 27, 2016 (GMT +0100)
Connaught

Weather History for EIKN - October, 2012

Change the Weather History Date:

Tuesday, October 2, 2012

  Actual Average Record
Temperature  
Mean Temperature 48 °F -  
Max Temperature 52 °F - - ()
Min Temperature 44 °F - - ()
Degree Days  
Heating Degree Days 17    
Moisture  
Dew Point 45 °F    
Average Humidity 92    
Maximum Humidity 100    
Minimum Humidity 76    
Precipitation  
Precipitation 0.31 in - - ()
Sea Level Pressure  
Sea Level Pressure 29.45 in    
Wind  
Wind Speed 9 mph ()    
Max Wind Speed 16 mph    
Max Gust Speed 28 mph    
Visibility 6.1 miles    
Events Rain    
T = Trace of Precipitation, MM = Missing Value Source: Averaged Metar Reports

Daily Weather History Graph

Daily Weather History Graph

Search for Another Location

Airport or City:

Trip Planner

Search our weather history database for the weather conditions in past years. The results will help you decide how hot, cold, wet, or windy it might be!

Date:

Astronomy

Oct. 02, 2012 Rise Set
Actual Time 7:39 AM IST 7:08 PM IST
Civil Twilight 7:04 AM IST 7:43 PM IST
Nautical Twilight 6:23 AM IST 8:24 PM IST
Astronomical Twilight 5:41 AM IST 9:06 PM IST
Moon 7:42 PM IST (10/2) 10:22 AM IST (10/2)
Length of Visible Light 12h 39m
Length of Day
11h 28m
Waning Gibbous, 95% of the Moon is Illuminated
Oct 2
Waning Gibbous
Oct 8
Last Quarter
Oct 15
New
Oct 22
First Quarter
Oct 29
Full

Hourly Weather History & Observations

Time (IST) Temp. Windchill Dew Point Humidity Pressure Visibility Wind Dir Wind Speed Gust Speed Precip Events Conditions
1:00 AM 47 °F - 46 °F 97% 29.62 in - South 8.9 mph - -  
7:00 AM 47 °F - 46 °F 95% 29.52 in 6 mi SW 11.2 mph - - Rain Light Rain Showers
7:00 AM 46.4 °F 41.1 °F 46.4 °F 100% 29.50 in 5.6 mi SW 11.5 mph - N/A Rain Light Rain Showers
7:30 AM 44.6 °F 40.2 °F 44.6 °F 100% 29.47 in 6.2 mi South 8.1 mph - N/A Rain Light Rain Showers
8:00 AM 44.6 °F 40.2 °F 44.6 °F 100% 29.47 in 5.0 mi SSW 8.1 mph - N/A Rain Light Rain Showers
8:30 AM 46.4 °F 42.4 °F 46.4 °F 100% 29.47 in 6.2 mi SW 8.1 mph - N/A Rain Light Rain Showers
9:00 AM 46.4 °F 44.3 °F 46.4 °F 100% 29.47 in 6.2 mi SW 4.6 mph - N/A Rain Light Rain Showers
9:30 AM 46.4 °F 42.4 °F 46.4 °F 100% 29.47 in 6.2 mi SSW 8.1 mph - N/A   Scattered Clouds
10:00 AM 48.2 °F - 46.4 °F 93% 29.47 in 6.2 mi SSW 9.2 mph - N/A   Partly Cloudy
10:30 AM 50.0 °F - 46.4 °F 87% 29.47 in 6.2 mi SW 10.4 mph - N/A   Partly Cloudy
11:00 AM 51.8 °F - 44.6 °F 76% 29.47 in 6.2 mi SSW 11.5 mph - N/A   Partly Cloudy
11:30 AM 51.8 °F - 44.6 °F 76% 29.47 in 6.2 mi SSW 15.0 mph - N/A   Partly Cloudy
12:00 PM 51.8 °F - 44.6 °F 76% 29.47 in 6.2 mi SSW 15.0 mph - N/A   Mostly Cloudy
12:30 PM 51.8 °F - 44.6 °F 76% 29.44 in 6.2 mi SW 15.0 mph - N/A   Mostly Cloudy
1:00 PM 49 °F - 45 °F 82% 29.47 in 5 mi SW 15.7 mph - - Rain Light Rain Showers
1:00 PM 48.2 °F - 44.6 °F 87% 29.44 in 5.0 mi SW 15.0 mph 27.6 mph N/A   Mostly Cloudy
1:30 PM 46.4 °F 41.1 °F 44.6 °F 93% 29.44 in 6.2 mi West 11.5 mph - N/A Rain Light Rain Showers
2:00 PM 48.2 °F - 44.6 °F 87% 29.42 in 6.2 mi SSW 4.6 mph - N/A   Mostly Cloudy
2:30 PM 46.4 °F 42.9 °F 46.4 °F 100% 29.42 in 5.6 mi South 6.9 mph - N/A Rain Light Rain Showers
3:00 PM 44.6 °F 39.7 °F 44.6 °F 100% 29.42 in 6.2 mi SSW 9.2 mph - N/A Rain Rain
3:30 PM 44.6 °F 39.7 °F 44.6 °F 100% 29.39 in 6.2 mi SSE 9.2 mph - N/A Rain Light Rain
4:00 PM 46.4 °F 42.9 °F 44.6 °F 93% 29.39 in 6.2 mi SSW 6.9 mph - N/A   Mostly Cloudy
4:30 PM 46.4 °F 42.9 °F 44.6 °F 93% 29.39 in 6.2 mi SW 6.9 mph - N/A Rain Light Rain
5:00 PM 46.4 °F 41.9 °F 44.6 °F 93% 29.39 in 6.2 mi SSW 9.2 mph - N/A Rain Light Rain
5:30 PM 46.4 °F 41.1 °F 44.6 °F 93% 29.39 in 6.2 mi WSW 11.5 mph - N/A   Mostly Cloudy
6:00 PM 46.4 °F 41.9 °F 44.6 °F 93% 29.39 in 6.2 mi WSW 9.2 mph - N/A   Mostly Cloudy
7:00 PM 45 °F - 45 °F 98% 29.43 in 9 mi West 11.2 mph - -   Overcast
7:00 PM 44.6 °F 38.8 °F 44.6 °F 100% 29.42 in 6.2 mi West 11.5 mph - N/A   Mostly Cloudy